[[{"header":{"parameterUnit":"m.s-1","parameterCategory":1,"la1":30.2991,"la2":30.254,"lo1":-89.0895,"lo2":-89.0444,"dy":0.0017,"dx":0.0017,"nx":28,"ny":28,"refTime":"2024-03-31T03:00:00:Z","depth":0,"parameterNumber":2,"parameterNumberName":"U-component_of_WINDS"},"data":[0,0,0,0,0,0,0,0,0,0,0,0,0,0,0,0,0,0,0,0,0,0,0,0,0,0,0,0,0,0,0,0,0,0,0,0,0,0,0,0,0,0,0,0,0,0,0,0,0,0,0,0,0,0,0,0,0,0,-2.0489,-2.049,0,-2.059,-2.0591,-2.0592,-2.0621,-2.062,-2.062,-2.0619,-2.0725,-2.0729,-2.0732,0,0,0,0,0,0,0,0,0,0,0,0,0,-2.0326,-2.0329,-2.0489,-2.049,-2.0492,-2.059,-2.0591,-2.0592,-2.0621,-2.062,-2.0619,-2.0619,-2.0724,-2.0728,-2.0732,0,0,0,0,0,0,0,0,0,0,0,0,0,-2.0409,-2.033,-2.0489,-2.0518,-2.0521,-2.0589,-2.0591,-2.0593,-2.0621,-2.062,-2.0619,-2.0619,-2.0723,-2.0728,-2.0733,-2.0781,0,0,-2.0748,-2.075,0,0,0,0,0,0,0,0,-2.0404,-2.0415,-2.0512,-2.0516,-2.052,-2.0592,-2.0572,-2.0656,-2.0621,-2.0583,-2.0619,-2.0618,-2.0682,-2.069,-2.0711,-2.0786,-2.079,-2.0749,-2.0752,-2.0754,-2.0755,0,0,0,0,0,0,0,-2.0398,-2.0411,-2.0529,-2.0514,-2.0518,-2.0527,-2.0538,-2.0588,-2.0636,-2.0586,-2.0589,-2.06,-2.0684,-2.0706,-2.0714,-2.0792,-2.0749,-2.0753,-2.0756,-2.0758,-2.0912,-2.0913,0,0,0,0,0,0,-2.0387,-2.0406,-2.0526,-2.0532,-2.0459,-2.053,-2.0543,-2.057,-2.0636,-2.0645,-2.0601,-2.0601,-2.0698,-2.0708,-2.0718,-2.0778,-2.0754,-2.0759,-2.0761,-2.0911,-2.0912,-2.0913,0,0,0,0,0,0,-2.0383,-2.0397,-2.0522,-2.047,-2.0486,-2.0534,-2.0564,-2.0572,-2.0594,-2.0646,-2.0655,-2.0614,-2.0698,-2.0711,-2.0765,-2.0782,-2.0761,-2.0765,-2.0909,-2.0911,-2.0912,-2.0899,0,0,0,0,0,0,-2.0379,-2.0396,-2.0414,-2.047,-2.0489,-2.0566,-2.0565,-2.0575,-2.0602,-2.0604,-2.0662,-2.067,-2.0698,-2.0757,-2.077,-2.0789,-2.0769,-2.0908,-2.091,-2.0912,-2.0898,-2.09,-2.0901,0,0,0,0,0,-2.0373,-2.0407,-2.0414,-2.0429,-2.0511,-2.0567,-2.0578,-2.0608,-2.0604,-2.0622,-2.0656,-2.0669,-2.0778,-2.0762,-2.0777,-2.0797,-2.0907,-2.0909,-2.0912,-2.0897,-2.0899,-2.0901,0,0,0,0,0,0,-2.0353,-2.0414,-2.0424,-2.0476,-2.0516,-2.0571,-2.0596,-2.0609,-2.0652,-2.0651,-2.0688,-2.0701,-2.0753,-2.0781,-2.0762,-2.0848,-2.0843,-2.0848,-2.0827,-2.083,-2.0831,-2.0823,-2.0774,0,0,0,0,0,-2.0354,-2.0392,-2.0445,-2.0487,-2.0506,-2.0547,-2.0573,-2.0592,-2.0636,-2.0653,-2.069,-2.0733,-2.0777,-2.0805,-2.0848,-2.0903,-2.0916,-2.0924,-2.0926,-2.0927,-2.0931,-2.0962,-2.0966,-2.0921,-2.0921,-2.0921,0,0,-2.0358,-2.0396,-2.0419,-2.0484,-2.0516,-2.0557,-2.0561,-2.0604,-2.0634,-2.066,-2.0712,-2.0742,-2.0792,-2.0846,-2.0872,-2.0871,-2.0947,-2.093,-2.093,-2.0934,-2.0965,-2.0969,-2.0973,-2.0922,-2.0922,-2.0922,0,0,-2.0385,-2.0418,-2.0456,-2.0489,-2.0538,-2.0566,-2.0575,-2.0629,-2.0649,-2.0702,-2.0722,-2.076,-2.0835,-2.087,-2.0897,-2.0938,-2.0952,-2.0952,-2.096,-2.099,-2.0994,-2.0997,-2.1012,-2.1017,-2.0956,-2.0956,-2.0956,0,-2.0384,-2.0444,-2.0474,-2.0515,-2.0544,-2.0568,-2.0607,-2.0638,-2.07,-2.0719,-2.0717,-2.0812,-2.0848,-2.091,-2.092,-2.0942,-2.0954,-2.0945,-2.0991,-2.0994,-2.0998,-2.1012,-2.1018,-2.0955,-2.0955,-2.0956,-2.0956,0,-2.044,-2.0481,-2.0507,-2.0564,-2.0595,-2.0636,-2.0673,-2.0702,-2.0719,-2.0747,-2.0802,-2.0845,-2.0898,-2.0915,-2.0933,-2.0981,-2.0978,-2.0983,-2.0979,-2.1001,-2.1015,-2.1021,-2.0955,-2.0955,-2.0955,-2.0955,0,0,-2.0457,-2.053,-2.0539,-2.0566,-2.0622,-2.0656,-2.0698,-2.0748,-2.0772,-2.0814,-2.085,-2.0914,-2.0918,-2.095,-2.0972,-2.0998,-2.1028,-2.1,-2.1002,-2.1003,-2.1084,-2.1079,-2.1085,-2.1037,-2.1039,-2.104,-2.1079,0,-2.0491,-2.0565,-2.0594,-2.0654,-2.0693,-2.0717,-2.0754,-2.0793,-2.0821,-2.0859,-2.0891,-2.0935,-2.0938,-2.0957,-2.0984,-2.1018,-2.1045,-2.1016,-2.1072,-2.1074,-2.1058,-2.1092,-2.1088,-2.1123,-2.1085,-2.1086,-2.1087,0,-2.054,-2.0581,-2.0645,-2.0697,-2.0715,-2.0747,-2.0796,-2.0832,-2.0878,-2.0896,-2.0931,-2.0952,-2.0998,-2.0991,-2.1056,-2.1036,-2.1061,-2.1082,-2.1084,-2.109,-2.1081,-2.1099,-2.1135,-2.114,-2.1096,-2.1095,-2.1094,0,-2.0546,-2.0617,-2.0665,-2.0687,-2.0749,-2.0771,-2.0798,-2.0843,-2.0871,-2.0915,-2.0934,-2.0982,-2.1009,-2.1047,-2.108,-2.1072,-2.1142,-2.1138,-2.1159,-2.1158,-2.1172,-2.1171,-2.1212,-2.1189,-2.1189,-2.1189,-2.1189,0,-2.0581,-2.0619,-2.0668,-2.0697,-2.0741,-2.0775,-2.0818,-2.0847,-2.0887,-2.0923,-2.0948,-2.0981,-2.1024,-2.1064,-2.1091,-2.114,-2.1152,-2.1169,-2.1176,-2.1167,-2.1164,-2.1183,-2.1181,-2.119,-2.119,-2.119,-2.1189,0,-2.0594,-2.0628,-2.0682,-2.0735,-2.075,-2.078,-2.0827,-2.0857,-2.0886,-2.0932,-2.0944,-2.099,-2.1038,-2.1076,-2.1139,-2.1157,-2.1209,-2.1217,-2.1193,-2.1196,-2.1215,-2.1213,-2.127,-2.1279,-2.125,-2.125,-2.125,0,-2.0614,-2.0643,-2.07,-2.0725,-2.0752,-2.0792,-2.0821,-2.0856,-2.0886,-2.094,-2.0964,-2.1013,-2.1055,-2.1131,-2.117,-2.1219,-2.1228,-2.1244,-2.1235,-2.1225,-2.1228,-2.1225,-2.1228,-2.1245,-2.1245,-2.1246,-2.1246,0,-2.0645,-2.066,-2.07,-2.0746,-2.078,-2.0818,-2.0857,-2.0877,-2.0919,-2.0951,-2.1,-2.1032,-2.1095,-2.1145,-2.1197,-2.1227,-2.1244,-2.1248,-2.1256,-2.1246,-2.1231,-2.1239,-2.1196,-2.1247,-2.1247,-2.1247,-2.1246,-2.1246,-2.0662,-2.069,-2.0733,-2.0777,-2.081,-2.0846,-2.0876,-2.0909,-2.0949,-2.1003,-2.1022,-2.1072,-2.1118,-2.119,-2.122,-2.1261,-2.1262,-2.1272,-2.1275,-2.1277,-2.1276,-2.1225,-2.1271,-2.1271,-2.1271,-2.1271,-2.1271,0,-2.0695,-2.0724,-2.0764,-2.0817,-2.0851,-2.0863,-2.0907,-2.0935,-2.0979,-2.1019,-2.1059,-2.1115,-2.1163,-2.1207,-2.1257,-2.1281,-2.129,-2.1293,-2.1292,-2.1298,-2.1272,-2.1261,-2.1285,-2.1285,-2.1285,-2.1285,-2.1285,-2.1285,-2.0716,-2.0762,-2.0783,-2.0847,-2.0877,-2.0925,-2.0949,-2.0982,-2.1015,-2.1076,-2.1115,-2.1143,-2.1185,-2.1239,-2.1283,-2.1295,-2.1313,-2.1313,-2.1327,-2.1302,-2.13,-2.1298,-2.1287,-2.1317,-2.1317,-2.135,-2.135,-2.135]},{"header":{"parameterUnit":"m.s-1","parameterCategory":1,"la1":30.2991,"la2":30.254,"lo1":-89.0895,"lo2":-89.0444,"dy":0.0017,"dx":0.0017,"nx":28,"ny":28,"refTime":"2024-03-31T03:00:00:Z","depth":0,"parameterNumber":3,"parameterNumberName":"V-component_of_WINDS"},"data":[0,0,0,0,0,0,0,0,0,0,0,0,0,0,0,0,0,0,0,0,0,0,0,0,0,0,0,0,0,0,0,0,0,0,0,0,0,0,0,0,0,0,0,0,0,0,0,0,0,0,0,0,0,0,0,0,0,0,4.4724,4.4724,0,4.4736,4.4736,4.4737,4.4714,4.4713,4.4713,4.4712,4.4723,4.4724,4.4725,0,0,0,0,0,0,0,0,0,0,0,0,0,4.4682,4.4683,4.4724,4.4724,4.4725,4.4736,4.4736,4.4737,4.4714,4.4713,4.4712,4.4711,4.4723,4.4724,4.4725,0,0,0,0,0,0,0,0,0,0,0,0,0,4.4698,4.4683,4.4724,4.4715,4.4714,4.4736,4.4736,4.4737,4.4714,4.4713,4.4712,4.4711,4.4722,4.4724,4.4725,4.4757,0,0,4.473,4.4731,0,0,0,0,0,0,0,0,4.4697,4.4699,4.4716,4.4715,4.4715,4.4723,4.4726,4.4743,4.4715,4.4714,4.4712,4.4711,4.4724,4.4725,4.473,4.4757,4.4758,4.473,4.4731,4.4732,4.4732,0,0,0,0,0,0,0,4.4696,4.4698,4.4729,4.4716,4.4715,4.471,4.4711,4.4729,4.4725,4.4714,4.4713,4.4714,4.4723,4.4728,4.473,4.4758,4.473,4.4731,4.4732,4.4733,4.4814,4.4815,0,0,0,0,0,0,4.4696,4.4698,4.4729,4.4729,4.4703,4.4712,4.4713,4.4721,4.4725,4.4724,4.4715,4.4713,4.4726,4.4728,4.473,4.4769,4.4732,4.4733,4.4734,4.4813,4.4814,4.4816,0,0,0,0,0,0,4.4695,4.4699,4.4728,4.4713,4.4716,4.4714,4.4723,4.4722,4.4727,4.4726,4.4725,4.4721,4.4726,4.4728,4.4751,4.4769,4.4734,4.4735,4.4811,4.4813,4.4815,4.4845,0,0,0,0,0,0,4.4694,4.4699,4.471,4.4714,4.4717,4.4749,4.4724,4.4723,4.473,4.4727,4.4731,4.4731,4.4725,4.4749,4.4752,4.477,4.4736,4.481,4.4812,4.4815,4.4843,4.4848,4.4853,0,0,0,0,0,4.4692,4.4718,4.4711,4.4715,4.4732,4.475,4.4752,4.4745,4.4731,4.4744,4.4743,4.4731,4.4766,4.4751,4.4755,4.4774,4.4809,4.4812,4.4814,4.4841,4.4847,4.4852,0,0,0,0,0,0,4.4716,4.4718,4.4711,4.4738,4.4744,4.4746,4.4761,4.4752,4.4761,4.4759,4.4749,4.475,4.4776,4.4777,4.476,4.4805,4.4785,4.4789,4.4804,4.481,4.4815,4.4814,4.4737,0,0,0,0,0,4.4724,4.4739,4.474,4.4763,4.4767,4.4764,4.4771,4.4765,4.4771,4.4773,4.4774,4.478,4.4793,4.4801,4.4813,4.4843,4.4844,4.4857,4.4862,4.4866,4.487,4.4887,4.4894,4.4825,4.4825,4.4825,0,0,4.4742,4.4745,4.4754,4.4768,4.4772,4.4788,4.4766,4.4782,4.4794,4.4776,4.4798,4.4799,4.4805,4.4832,4.4844,4.4834,4.4889,4.487,4.4873,4.4875,4.4891,4.4898,4.4903,4.4827,4.4827,4.4826,0,0,4.4781,4.4785,4.4806,4.4811,4.4818,4.4815,4.4821,4.4825,4.4825,4.4847,4.4834,4.4848,4.4869,4.4875,4.488,4.4924,4.4913,4.4928,4.4954,4.4971,4.4976,4.4981,4.4998,4.5004,4.4931,4.4931,4.4931,0,4.4802,4.4825,4.4818,4.4836,4.4843,4.4828,4.485,4.4855,4.4865,4.4871,4.4859,4.4887,4.489,4.4919,4.493,4.4934,4.4941,4.4927,4.4976,4.4981,4.4985,4.5001,4.5007,4.4933,4.4933,4.4933,4.4932,0,4.4851,4.4867,4.4883,4.4895,4.4903,4.4923,4.4919,4.4929,4.4923,4.4922,4.4946,4.4949,4.4962,4.4968,4.4962,4.4997,4.499,4.4978,4.4957,4.4994,4.5009,4.5015,4.4936,4.4935,4.4934,4.4934,0,0,4.4905,4.4913,4.4919,4.4925,4.4933,4.4945,4.4964,4.4978,4.4987,4.4994,4.5011,4.5031,4.502,4.5026,4.502,4.5035,4.5072,4.5021,4.5021,4.5031,4.5112,4.5122,4.5129,4.5065,4.5066,4.5067,4.5112,0,4.4945,4.498,4.4975,4.5008,4.5024,4.5011,4.5028,4.5035,4.5035,4.5048,4.5047,4.5062,4.5046,4.505,4.5064,4.5064,4.5088,4.5061,4.5081,4.5082,4.5081,4.5137,4.5147,4.519,4.5117,4.5118,4.5119,0,4.4997,4.5008,4.5044,4.505,4.5057,4.5072,4.5085,4.5097,4.5105,4.5104,4.5112,4.5104,4.5124,4.5103,4.5131,4.5113,4.5121,4.5123,4.5124,4.5126,4.5103,4.5142,4.5203,4.521,4.5128,4.5127,4.5127,0,4.5035,4.5059,4.5083,4.5088,4.5096,4.5108,4.5112,4.5118,4.5127,4.5138,4.5143,4.5156,4.5163,4.5173,4.5169,4.5154,4.5199,4.5177,4.5199,4.5199,4.5209,4.5209,4.5274,4.5213,4.5213,4.5213,4.5213,0,4.5082,4.5104,4.5101,4.5116,4.5141,4.5135,4.516,4.5162,4.5168,4.5184,4.5173,4.5188,4.5181,4.5195,4.5192,4.5217,4.522,4.522,4.5219,4.5222,4.5222,4.5227,4.5225,4.5214,4.5214,4.5214,4.5213,0,4.5128,4.5127,4.5153,4.5159,4.5161,4.5179,4.5184,4.5199,4.5199,4.5219,4.5223,4.5222,4.5239,4.5236,4.5254,4.5252,4.5283,4.5278,4.5281,4.528,4.5303,4.5301,4.5375,4.5384,4.5316,4.5316,4.5317,0,4.5159,4.5176,4.5184,4.5194,4.5199,4.5215,4.5225,4.522,4.523,4.5241,4.5254,4.527,4.5283,4.531,4.5311,4.5325,4.5321,4.5346,4.5323,4.5326,4.5323,4.5323,4.5325,4.5351,4.5351,4.5352,4.5352,0,4.5213,4.5212,4.5226,4.5241,4.5253,4.5264,4.5273,4.5282,4.5278,4.529,4.5308,4.5318,4.5337,4.5353,4.5367,4.537,4.5361,4.536,4.5366,4.5369,4.5371,4.5372,4.5295,4.5358,4.5357,4.5357,4.5357,4.5357,4.5253,4.5269,4.5278,4.5294,4.5301,4.5311,4.5326,4.5328,4.5343,4.5359,4.5354,4.5375,4.5383,4.54,4.5406,4.5421,4.5412,4.5421,4.5423,4.5426,4.5429,4.5367,4.5424,4.5423,4.5423,4.5423,4.5423,0,4.5308,4.5314,4.5329,4.5344,4.5358,4.5348,4.5359,4.5371,4.5389,4.5398,4.5411,4.5432,4.5448,4.5451,4.5466,4.5478,4.5475,4.5483,4.5482,4.5484,4.5436,4.5429,4.5486,4.5485,4.5485,4.5485,4.5485,4.5485,4.5339,4.5365,4.5365,4.5395,4.54,4.5421,4.5428,4.5437,4.5444,4.5468,4.5482,4.5484,4.5491,4.5507,4.5521,4.5522,4.5529,4.5539,4.5538,4.5493,4.5487,4.5481,4.5475,4.554,4.554,4.5584,4.5585,4.5585]}]]